CHUANGXIN 16A (CX-16A) (53586 NORAD) Tracking and Keplerian Element Data

This shows tracking and keplerian element data for the satellite.

Feedback or suggestion? Click here.




ElementValue
Catalog53586
NameCHUANGXIN 16A (CX-16A)
Epoch Orbit1342
Epoch Day324.86976414
Epoch Year2022
RAAN152.9505
Inclination28.9966
Eccentricity0.0004873
Argument of Perigee94.6488
Mean Anonmoly265.4664
Mean Motion14.92353595
Decay Rate9.28E-06
L11 53586U 22102A 22324.86976414 .00000928 00000+0 75438-4 0 9991
L22 53586 28.9966 152.9505 0004873 94.6488 265.4664 14.92353595 13426



Live tracking and technical data element details for CHUANGXIN 16A (CX-16A) (NORAD 53586). CHUANGXIN 16A (CX-16A) can be tracked NOW for your location showing map with azimuth and elevation plus other details from your city location.







IsCatalogInMostPopularTable: catalog: 53586, numindb: 4
Update: records affected: 1



GetName: 53586 CHUANGXIN 16A (CX-16A)

Hit Count: updated at: Thu, 08 Dec 2022 20:04:51 GMT